{"data":{"norad_id":56790,"epoch":"2026-09-20T11:37:15.335328Z","epoch_age_seconds":116261,"freshness":"FRESH","line1":"1 56790U 23078Z   26263.48420527  .00000194  00000+0  24080-4 0  9999","line2":"2 56790  70.0000 173.3551 0003004 269.7154  90.3661 14.98330199182847","mean_motion":14.98330199,"eccentricity":0.0003004,"inclination_deg":70,"raan_deg":173.3551,"arg_perigee_deg":269.7154,"mean_anomaly_deg":90.3661,"bstar":2.408e-5,"rev_number":18284,"period_min":96.106986361289,"perigee_km":569.96743779382,"apogee_km":574.14311331298,"semimajor_km":6950.1922755534,"source":"CELESTRAK","updated_at":"2026-09-21T09:00:33.507603Z"}}